Weather in Barabanovka

Russia / Orenburg Oblast     52°11′57″N   53°29′14″E
temp.,
°C
wind,
m/s
gust,
m/s
humid.,
%
clouds,
%
prec.,
mm/h
press.,
hPa
HPBL,
m
28 february, sun
sun2823:000sw5898100 0.4 1000422
02:000sw5898100 0.4 999422
05:00−1sw3798100 1.6 998297
08:00−2w3598100 1.0 999192
11:00−10nw579598 1.4 1001238
14:00−9wnw5794100 0.3 1003328
17:00−10wnw689499 0.4 1006404
20:00−12wnw599599 0.3 1009258
1 march, mon
mon123:00−14wnw479796 0.3 1011137
02:00−13nw3696100 0.2 1013208
05:00−15nw359796 0.3 1015105
08:00−16nw369793 0.2 1017173
11:00−15nw359592 0.3 1019253
14:00−13nw459399 0.1 1020336
17:00−13wnw3593100 0.1 1021394
20:00−18wnw3498100 0.1 102275
2 march, tue
tue223:00−21wnw23100100 0.1 102322
02:00−23w239947 0.0 102321
05:00−22sw339940 0.0 102223
08:00−21ssw4810064 0.0 1020158
11:00−17ssw7119682 0.0 1018291
14:00−12ssw91494100 0.1 1014400
17:00−8ssw91593100 0.9 1011715
20:00−5sw81593100 1.1 1008727
3 march, wed
wed323:00−4sw71493100 1.4 1006550
02:00−4sw71394100 0.4 1004460
05:00−3sw51096100 1.4 1004397
08:00−4sw3597100 0.3 1003143
11:00−2w2396100 0.4 1004220
14:00−1wnw3493100 0.1 1004378
17:00−3wnw359593 0.1 1004277
20:00−3wnw369496 0.1 1005269
4 march, thu
thu423:00−6nnw499697 0.1 1007265
02:00−6nw599397 0.1 1008372
05:00−12nw469577 0.1 101089
08:00−14wnw359842 0.0 101189
11:00−10w479570 0.1 1012239
14:00−7wsw599176 0.0 1012409
17:00−7sw7129060 0.0 1012435
20:00−6sw9179192 0.0 1010589